Tracking 19245 objects as of 14-Aug-2018
HD Live streaming from Space Station
objects crossing your sky now

METEOR 2-8

Track METEOR 2-8 now!
10-day predictions
METEOR 2-8 is classified as:


NORAD ID: 13113
Int'l Code: 1982-025A
Perigee: 938.7 km
Apogee: 965.3 km
Inclination: 82.5 °
Period: 103.9 minutes
Semi major axis: 7323 km
RCS: 4.8522 m2 (large)
Launch date: March 25, 1982
Source: Commonwealth of Independent States (former USSR) (CIS)
Launch site: PLESETSK MISSILE AND SPACE COMPLEX (PKMTR)
aabbcc
Your satellite tracking list
Your tracking list is empty




NASA's NSSDC Master Catalog

Two Line Element Set (TLE):
1 13113U 82025A   18226.53779878  .00000012  00000-0 -27418-5 0  9990
2 13113  82.5372 220.0283 0018149  15.6283  99.4030 13.85378858839408
Source of the keplerian elements: AFSPC